logo
Search for airport 
image banner adimage banner adimage banner ad
image banner ad

UGSB - Batumi

Located in Batumi, Georgia

ICAO - UGSB, IATA - BUS

Data provided by Airmate  

General information

Coordinates: N41°36'37" E41°35'58"
Elevation is 37 feet MSL.
Magnetic variation is 7° East
View others Airports in Adjara

Operational data

Special qualification required
Current time UTC:
Current local time:
Weather
METAR: UGSB 201300Z 27005KT CAVOK 19/14 Q1017 NOSIG
TAF: TAF UGSB 201100Z 2012/2112 27007KT CAVOK TX20/2111Z TN11/2101Z BECMG 2019/2022 12010KT PROB40 TEMPO 2100/2106 SCT014
View NOTAMs / SUP AIP / TFR affecting this airport [VIEW]
Communications frequencies: [VIEW]

Runways:

RWY identifierQFULength (ft)Width (ft)SurfaceLDA (ft)
12131°8202148CONC+ASPH8202
30311°8202148CONC+ASPH8202

Airport contact information

Address: Batumi Georgia

Satellite view of UGSB